Regional Weather Roundup
Issued by NWS San Angelo, TX

Home | Current Version | Previous Version | Text Only | Print | Product List | Glossary On
Versions: 1 2 3 4 5 6 7 8 9 10 11 12 13 14 15 16 17 18 19 20 21 22 23 24 25 26 27 28 29 30 31 32 33 34 35 36 37 38 39 40 41 42 43 44 45 46 47 48 49 50
000
ASUS44 KSJT 261110
RWRSJT
WEST CENTRAL TEXAS REGIONAL WEATHER ROUNDUP
NATIONAL WEATHER SERVICE SAN ANGELO TX
500 AM CST FRI DEC 26 2014

NOTE: "FAIR" INDICATES FEW OR NO CLOUDS BELOW 12,000 FEET WITH NO
SIGNIFICANT WEATHER AND/OR OBSTRUCTIONS TO VISIBILITY.

TXZ049-054-064>066-071>073-076>078-098-099-113-114-127-128-139-140-
154-155-168>170-261200
...LOCATIONS ACROSS WEST CENTRAL TEXAS...

CITY           SKY/WX    TMP DP  RH WIND       PRES   REMARKS
SAN ANGELO     MOCLDY    51  42  71 S14G22    29.84S
ABILENE        PTCLDY    49  40  71 S20G29    29.81S
DYESS AFB      MOCLDY    51  40  67 S23G32    29.76F
JUNCTION       CLOUDY    55  48  77 S12       29.87F
SWEETWATER     CLOUDY    48  38  68 S16G22    29.83R
BROWNWOOD      CLOUDY    45  41  87 CALM      29.87F
COLEMAN        MOSUNNY   48  45  88 SW5       29.87S
SONORA         MOCLDY    48  43  81 S9        29.91S
OZONA          FAIR      46  41  81 S9        29.88S
BRADY          CLEAR     54  46  76 S15       29.84S
$$

TEXAS PANHANDLE/OKLAHOMA PANHANDLE

CITY           SKY/WX    TMP DP  RH WIND       PRES   REMARKS
AMARILLO       CLEAR     37  24  59 NW7       29.77R WCI  32
BORGER         CLEAR     29  22  75 N13       29.80R WCI  19
CANADIAN       MOCLDY    37  27  69 NW10      29.80R WCI  29
DALHART        CLOUDY    30  24  78 N22       29.80R WCI  17
DUMAS          CLOUDY    28  24  86 N17       29.81R WCI  15
GUYMON         NOT AVBL
HEREFORD       SUNNY     31  24  75 W3        29.73S
PAMPA          MOSUNNY   34  22  62 N13       29.78F WCI  25
PERRYTON       CLOUDY    29  26  91 N17       29.81R WCI  16
$$

SOUTHERN PANHANDLE/SOUTH PLAINS/ROLLING PLAINS

CITY           SKY/WX    TMP DP  RH WIND       PRES   REMARKS
LUBBOCK        CLEAR     38  29  70 S8        29.77S WCI  32
SNYDER         CLOUDY    45  37  71 S12       29.81S WCI  40
CHILDRESS      CLOUDY    47  28  47 S8        29.77S
SEMINOLE       SUNNY     35  29  79 CALM      29.77F
$$

PERMIAN BASIN

CITY           SKY/WX    TMP DP  RH WIND       PRES   REMARKS
MIDLAND        PTCLDY    46  32  58 S14       29.78F WCI  40
ODESSA         PTCLDY    46  31  55 S14       29.79S WCI  40
WINK           CLEAR     43  28  55 SE8       29.76F WCI  38
$$

FAR WEST/SOUTHWEST MOUNTAINS/TRANS PECOS

CITY           SKY/WX    TMP DP  RH WIND       PRES   REMARKS
ALPINE         SUNNY     53  19  26 SW15G21   29.89S
DRYDEN           N/A     41  34  76 N8        29.83F WCI  36
EL PASO        MOCLDY    48  30  49 W13       29.77R
FORT STOCKTON  CLEAR     41  30  65 S10       29.78S WCI  35
GUADALUPE PASS NOT AVBL
MARFA          CLEAR     28  16  59 CALM      29.88S
PECOS          SUNNY     34  26  72 N6        29.76S WCI  29
$$

DALLAS/FORT WORTH METROPLEX

CITY           SKY/WX    TMP DP  RH WIND       PRES   REMARKS
DFW AIRPORT    CLOUDY    53  46  77 SE10      29.91F
FTW MEACHAM    MOCLDY    52  47  83 SE13      29.89F
DAL-EXECUTIVE  CLOUDY    56  47  71 SE9       29.92F
GRAND PRAIRIE  CLOUDY    56  49  79 S9        29.93F
ADDISON        NOT AVBL
MESQUITE       NOT AVBL
LANCASTER      CLOUDY    53  45  75 SE7       29.95S
$$

NORTH CENTRAL TEXAS

CITY           SKY/WX    TMP DP  RH WIND       PRES   REMARKS
SHRMAN/DENISON CLOUDY    51  47  87 SE9       29.93F
GAINESVILLE    MOCLDY    48  45  87 SE12      29.90F
BRIDGEPORT     CLOUDY    49  45  87 SE7       29.89F
DENTON         MOCLDY    53  47  79 S15       29.90F
WAXAHACHIE     CLOUDY    54  49  83 SE7       29.93F
GRANBURY       CLOUDY    50  46  85 SE7       29.90S
$$

WESTERN NORTH TEXAS

CITY           SKY/WX    TMP DP  RH WIND       PRES   REMARKS
WICHITA FALLS  PTCLDY    43  36  76 CALM      29.86R
VERNON         CLOUDY    47  29  48 SE9       29.82F
BRECKENRIDGE   SUNNY     51  42  72 S12       29.83S
COMANCHE       PTCLDY    50  47  88 S5        29.87S
$$

CENTRAL AND SOUTH CENTRAL TEXAS

CITY           SKY/WX    TMP DP  RH WIND       PRES   REMARKS
AUSTIN/BERGSTM MOCLDY    55  51  86 S7        29.93F
WACO           CLOUDY    53  48  83 SE8       29.92F
HILLSBORO      CLOUDY    55  48  76 SE12      29.92F
TEMPLE         MOCLDY    54  46  76 S15       29.91F
KILLEEN-GRAY   CLOUDY    55  51  87 S10       29.91S
FORT HOOD      PTCLDY    53  50  92 SE10      29.91F
GEORGETOWN     MOCLDY    55  52  88 S9        29.91F
LAGO VISTA     PTSUNNY   56  52  85 S13       29.93S
SAN MARCOS     CLOUDY    54  48  82 S6        29.94F
NEW BRAUNFELS  CLOUDY    55  50  83 CALM      29.93F
RANDOLPH AFB   CLOUDY    54  49  83 NE1       29.94F
SAN ANTONIO    CLOUDY    56  50  80 CALM      29.94F
STINSON        CLOUDY    57  50  77 CALM      29.93S
PLEASANTON     NOT AVBL
LA GRANGE      MOCLDY    60  57  91 SE7       29.94F
GIDDINGS       CLOUDY    59  54  83 S9        29.99S
$$

EAST TEXAS

CITY           SKY/WX    TMP DP  RH WIND       PRES   REMARKS
PARIS          CLOUDY    48  43  81 SE13      30.00F
CLARKSVILLE    NOT AVBL
TYLER          CLOUDY    52  46  80 SE10      30.00F
LONGVIEW       CLOUDY    50  45  83 SE7       30.03F
PALESTINE      CLOUDY    56  50  81 SE8       30.00F
NACOGDOCHES      N/A    N/A N/A N/A MISG        N/A
$$

TEXAS HILL COUNTRY AND EDWARDS PLATEAU

CITY           SKY/WX    TMP DP  RH WIND       PRES   REMARKS
LLANO          CLOUDY    61  52  72 S12G21    29.93F
HORSESHOE BAY  CLOUDY    58  50  77 S8        29.91F
KERRVILLE      CLOUDY    54  51  89 S9        29.93F
FREDERICKSBRG  CLOUDY    56  51  82 S9        29.91F
ROCKSPRINGS    CLOUDY    52  48  87 S17G23    29.90F
HONDO          CLOUDY    54  48  80 CALM      29.95F
UVALDE         MOSUNNY   50  47  90 E6        29.93F
DEL RIO        CLOUDY    49  45  86 E9        29.87F
$$

SOUTHEAST TEXAS

CITY           SKY/WX    TMP DP  RH WIND       PRES   REMARKS
COLLEGE STN    CLOUDY    58  51  78 S9        29.97F
CALDWELL       CLOUDY    57  54  88 SE12      29.98F
CROCKETT       CLOUDY    55  54  94 SE7       30.03F
BRENHAM        MOCLDY    58  53  83 SE7       29.99F
HUNTSVILLE     CLOUDY    59  52  77 S7        29.99F
CONROE         CLOUDY    56  51  84 SE3       30.01F
HOUSTON BUSH   CLOUDY    62  55  77 SE7       30.00F
HOUSTON HOBBY  LGT RAIN  63  57  81 S3        30.01S
PERLAND        CLOUDY    64  57  78 S6        30.02F
WHARTON        CLOUDY    60  57  90 SE6       29.99F
$$

THE UPPER TEXAS COAST

CITY           SKY/WX    TMP DP  RH WIND       PRES   REMARKS
ORANGE         CLOUDY    60  55  83 SE8       30.07S
PORT ARTHUR    CLOUDY    63  56  78 SE12      30.04S
GALVESTON      CLOUDY    63  60  90 S12       30.03S
ANGLETON       CLOUDY    64  57  78 S9        30.00F
BAY CITY         N/A     65  60  85 S7        29.99S
$$

TEXAS COASTAL BEND, RIO GRANDE PLAINS DEEP SOUTH TEXAS

CITY           SKY/WX    TMP DP  RH WIND       PRES   REMARKS
VICTORIA       CLOUDY    63  59  87 SE7       29.95F
BEEVILLE       CLOUDY    63  59  86 S7        29.93S
ROCKPORT       CLOUDY    67  60  78 SE8       29.94F
PORT ARANSAS   CLOUDY    65  61  85 S13       29.93S
PORT LAVACA    CLOUDY    63  60  90 SE6       29.96F
CORPUS CHRISTI CLOUDY    66  60  81 S18       29.92F
KINGSVILLE NAS CLOUDY    64  63  96 SE16      29.91F
COTULLA        CLOUDY   N/A N/A N/A CALM      29.92S
LAREDO         NOT AVBL
BROWNSVILLE    CLOUDY    65  63  93 SE16      29.91F
PORT ISABEL    CLOUDY    65  62  90 S16       29.91F
HEBBRONVILLE   MOSUNNY   57  55  93 SE6       29.89F
MCALLEN        MOCLDY    64  58  80 SE16      29.91F
WESLACO        CLOUDY    65  58  79 S8        29.90F
FALFURRIAS     CLOUDY    63  60  90 SE12      29.90S
EDINBURG       CLOUDY    67  59  77 SE9       29.91F
$$


USA.gov is the U.S. government's official web portal to all federal, state and local government web resources and services.